STARLINK-11290, 61000

Orbit data source: Space-Track

STARLINK-11290, 61000 is a payload satellite owned by SpaceX/Seattle (US) in LEO that was launched on Thu, 05 Sep 2024 UTC via an FALCON 9 launch vehicle from the Air Force Eastern Test Range (AFETR). Payload-class satellites include a variety of spacecraft equipped with specific instruments for various scientific and technological missions. These include communications satellites like Starlink; space stations such as the ISS; scientific satellites like the Hubble; Earth observation satellites from companies like Planet Labs, Umbra, and HawkEye 360; GPS; miniature CubeSats for education and research; and military/defense satellites.

Loading next visibility...
Identifier
61000, 2024-158L
Orbit
LEO
Country
Flag of USUS
Related business
Manufacturer
SpaceX/Seattle
Mission
Operational Commercial Communications
Bus & Motor
STARLINK V2MD, Unknown motor
Mass
960 kg wet, ~910 kg dry
Launch date (UTC)
2024-09-05 (1 year ago)
Launch vehicle
FALCON 9
Launch site
Air Force Eastern Test Range (AFETR)
Object type
Payload
Rocket body
Debris
Shape & HBR
Box + 2 Pan, 18.1 m
Radar Cross Section
36.964 m², Large (>1 m²)

Expand to show TLE details & history
Last TLE update: 11 hours ago

TLE from 11 hours ago
0 STARLINK-11290
1 61000U 24158L   25299.08776361  .00001569  00000-0  17800-4 0  9993
2 61000  53.1588 224.8187 0001051  78.3416 281.7720 15.69715608 66510
Epoch: 2025-10-26T02:06Z
TLE epoch observation values (Epoch: 2025-10-26T02:06:22.775Z)
Latitude
-0.00003°
Longitude
158.51479°
Altitude
360.481 km
Speed
7.694 km/s
True Right ascension
14h 59m 16s
True Declination
0° 00' 00"
Sunlit
Object was in daylight at epoch
Visualization orbit readout
Latitude
Unknown
Longitude
Unknown
Altitude
Unknown
Speed
Unknown
Apparent Right ascension
Unknown
Apparent Declination
Unknown
Sunlit
N/A
Visualization observer readout
Local Sidereal Time
08:43:48
Azimuth
Unknown
Elevation
Unknown
Doppler factor
Unknown
Orbital elements
Apogee altitude
360.68 km
Perigee altitude
359.263 km
Semi-major axis
6,738.109 km
Eccentricity
0.00011
Inclination
53.1588°
RAAN
224.8187°
Arg. of periapsis
78.3416°
True anomaly
281.76021°
Mean anomaly
281.772°
Eccentric anomaly
281.7661°
Mean motion
3.92406 °/min
Orbital period
91.74 mins
BSTAR
0.0000178
Loading maneuver chart data...
Computing Atmospheric mass density...
Loading historical data...
Loading historical data...
Loading historical data...
Loading historical data...
Loading historical data...
Loading historical data...
Loading historical data...

Documentation

Showing up to 5 results
|